EW6378 Weather Reports


Display with metric or nautical units.
time (UTC)temp
F
wind
direction
speed
MPH
gust
MPH
rain 1hr
in
rain 24hr
in
rain mn
in
humidity
%
barometer
mb
20260505004057 65 0 0.0 0.0 0.00 0.00 0.00 57 1010.2
20260505003558 65 0 0.0 0.0 0.00 0.00 0.00 56 1010.4
20260505003102 66 0 0.0 0.0 0.00 0.00 0.00 56 1010.4
20260505002600 66 0 0.0 0.0 0.00 0.00 0.00 55 1010.3
20260505002058 66 0 0.0 0.0 0.00 0.00 0.00 54 1010.3
20260505001558 66 0 0.0 0.0 0.00 0.00 0.00 53 1010.3
20260505001058 66 0 0.0 1.0 0.00 0.00 0.00 53 1010.2
20260505000559 67 0 0.0 1.0 0.00 0.00 0.00 52 1010.3
20260505000111 67 0 0.0 1.0 0.00 0.00 0.00 51 1010.2
20260504235558 67 0 0.0 1.0 0.00 0.00 0.00 50 1010.2
20260504235058 68 0 0.0 1.0 0.00 0.00 0.00 49 1010.2
20260504234557 68 0 0.0 0.0 0.00 0.00 0.00 48 1010.3
20260504234058 68 0 0.0 0.0 0.00 0.00 0.00 48 1010.3
20260504233559 69 0 0.0 0.0 0.00 0.00 0.00 47 1010.3
20260504233059 69 0 0.0 1.0 0.00 0.00 0.00 47 1010.3
20260504232558 69 0 0.0 2.0 0.00 0.00 0.00 46 1010.3
20260504232057 69 0 0.0 2.0 0.00 0.00 0.00 46 1010.3
20260504231621 69 0 0.0 2.0 0.00 0.00 0.00 45 1010.2
20260504231057 69 0 0.0 1.0 0.00 0.00 0.00 45 1010.3
20260504230557 69 0 0.0 3.0 0.00 0.00 0.00 45 1010.4
20260504230058 70 0 0.0 3.0 0.00 0.00 0.00 44 1010.2
20260504225559 70 0 0.0 6.0 0.00 0.00 0.00 43 1010.2
20260504225058 70 0 0.0 6.0 0.00 0.00 0.00 44 1010.3
20260504224600 70 188 0.0 7.0 0.00 0.00 0.00 44 1010.2
20260504224058 71 0 0.0 7.0 0.00 0.00 0.00 43 1010.2
20260504223601 71 0 0.0 7.0 0.00 0.00 0.00 43 1010.3
20260504223058 71 0 0.0 8.0 0.00 0.00 0.00 43 1010.2
20260504222601 71 0 0.0 8.0 0.00 0.00 0.00 42 1010.2
20260504222058 72 0 0.0 6.0 0.00 0.00 0.00 41 1010.2
20260504221644 72 0 0.0 10.0 0.00 0.00 0.00 41 1010.1
20260504221057 72 0 0.0 10.0 0.00 0.00 0.00 40 1010.2
20260504220558 72 0 0.0 4.0 0.00 0.00 0.00 40 1010.2
20260504220059 73 192 0.0 4.0 0.00 0.00 0.00 40 1010.0
20260504215558 73 0 0.0 2.0 0.00 0.00 0.00 40 1010.2
20260504215059 73 0 0.0 2.0 0.00 0.00 0.00 39 1010.1
20260504214556 73 0 0.0 3.0 0.00 0.00 0.00 39 1010.1
20260504214057 73 0 0.0 5.0 0.00 0.00 0.00 39 1010.1
20260504213557 73 0 0.0 5.0 0.00 0.00 0.00 38 1010.1
20260504213101 74 0 0.0 3.0 0.00 0.00 0.00 38 1010.2
20260504212601 74 0 0.0 4.0 0.00 0.00 0.00 38 1010.2
20260504212057 74 0 0.0 4.0 0.00 0.00 0.00 38 1010.1
20260504211557 74 0 0.0 6.0 0.00 0.00 0.00 37 1010.2
20260504211058 74 0 0.0 6.0 0.00 0.00 0.00 37 1010.1
20260504210558 74 147 0.0 6.0 0.00 0.00 0.00 37 1010.2
20260504210058 75 0 0.0 2.0 0.00 0.00 0.00 36 1010.1
20260504205604 75 0 0.0 2.0 0.00 0.00 0.00 36 1010.1
20260504205058 76 0 0.0 2.0 0.00 0.00 0.00 35 1010.1
20260504204556 77 0 0.0 2.0 0.00 0.00 0.00 35 1010.2
20260504204058 76 0 0.0 2.0 0.00 0.00 0.00 32 1010.2
20260504203601 77 0 0.0 1.0 0.00 0.00 0.00 31 1010.3
20260504203058 77 0 0.0 9.0 0.00 0.00 0.00 32 1010.2
20260504202559 76 0 0.0 9.0 0.00 0.00 0.00 32 1010.3
20260504202058 76 0 0.0 0.0 0.00 0.00 0.00 32 1010.2
20260504201602 76 0 0.0 8.0 0.00 0.00 0.00 32 1010.4
20260504201058 76 0 0.0 8.0 0.00 0.00 0.00 32 1010.4
20260504200558 76 0 0.0 8.0 0.00 0.00 0.00 32 1010.6
20260504200057 76 0 0.0 3.0 0.00 0.00 0.00 32 1010.5
20260504195557 76 0 0.0 3.0 0.00 0.00 0.00 32 1010.6
20260504195057 76 0 0.0 9.0 0.00 0.00 0.00 32 1010.8
20260504194603 76 0 0.0 9.0 0.00 0.00 0.00 33 1010.8
20260504194057 76 0 0.0 2.0 0.00 0.00 0.00 34 1010.7
20260504193558 76 0 0.0 2.0 0.00 0.00 0.00 33 1011.0
20260504193057 76 0 0.0 3.0 0.00 0.00 0.00 33 1011.0
20260504192558 76 0 0.0 3.0 0.00 0.00 0.00 33 1011.0
20260504192059 76 0 0.0 2.0 0.00 0.00 0.00 34 1011.1
20260504191621 76 0 0.0 3.0 0.00 0.00 0.00 33 1011.1
20260504191058 75 0 0.0 3.0 0.00 0.00 0.00 35 1011.5
20260504190558 75 0 0.0 6.0 0.00 0.00 0.00 35 1011.4
20260504190109 75 0 0.0 6.0 0.00 0.00 0.00 35 1011.5
20260504185557 75 0 0.0 4.0 0.00 0.00 0.00 34 1011.6
20260504185057 75 0 0.0 2.0 0.00 0.00 0.00 33 1011.7
20260504184609 75 0 0.0 2.0 0.00 0.00 0.00 34 1011.7
20260504184058 75 209 0.0 3.0 0.00 0.00 0.00 32 1011.9
20260504183558 74 0 0.0 3.0 0.00 0.00 0.00 32 1011.9
20260504183055 75 0 0.0 3.0 0.00 0.00 0.00 32 1012.0
20260504182602 74 0 0.0 3.0 0.00 0.00 0.00 33 1011.9
20260504182057 74 0 0.0 4.0 0.00 0.00 0.00 32 1012.0
20260504181556 74 0 0.0 4.0 0.00 0.00 0.00 33 1012.0
20260504181058 74 0 0.0 4.0 0.00 0.00 0.00 31 1012.2
20260504180556 73 0 0.0 5.0 0.00 0.00 0.00 32 1012.1
20260504180059 74 293 0.0 5.0 0.00 0.00 0.00 33 1012.1
20260504175558 74 0 0.0 4.0 0.00 0.00 0.00 31 1012.3
20260504175058 73 0 0.0 2.0 0.00 0.00 0.00 33 1012.4
20260504174555 73 0 0.0 5.0 0.00 0.00 0.00 33 1012.4
20260504174058 73 0 0.0 5.0 0.00 0.00 0.00 33 1012.5
20260504173600 73 0 0.0 5.0 0.00 0.00 0.00 32 1012.5
20260504173056 73 0 0.0 4.0 0.00 0.00 0.00 33 1012.5
20260504172602 73 0 0.0 4.0 0.00 0.00 0.00 33 1012.7
20260504172101 73 0 0.0 5.0 0.00 0.00 0.00 33 1012.8
20260504171556 73 0 0.0 5.0 0.00 0.00 0.00 34 1012.8
20260504171057 73 0 0.0 5.0 0.00 0.00 0.00 33 1012.8
20260504170559 73 0 0.0 2.0 0.00 0.00 0.00 34 1012.9
20260504151058 68 0 0.0 1.0 0.00 0.00 0.00 36 1014.1
20260504150600 68 0 0.0 2.0 0.00 0.00 0.00 36 1014.2
20260504141058 64 0 0.0 1.0 0.00 0.00 0.00 46 1014.4
20260504140603 64 0 0.0 1.0 0.00 0.00 0.00 46 1014.4
20260504140106 64 0 0.0 1.0 0.00 0.00 0.00 46 1014.4
20260504130557 59 0 0.0 2.0 0.00 0.00 0.00 51 1014.6
20260504110559 51 0 0.0 1.0 0.00 0.00 0.00 63 1015.3
20260504100557 50 0 0.0 1.0 0.00 0.00 0.00 63 1015.1
20260504081611 50 0 0.0 0.0 0.00 0.00 0.00 62 1015.6
20260504081059 51 0 0.0 0.0 0.00 0.00 0.00 62 1015.7
20260504080557 51 0 0.0 1.0 0.00 0.00 0.00 62 1015.6
20260504060107 48 0 0.0 0.0 0.00 0.00 0.00 61 1015.8
20260504050556 49 0 0.0 0.0 0.00 0.00 0.00 59 1015.7
20260504050108 49 0 0.0 0.0 0.00 0.00 0.00 59 1015.7
20260504045559 49 0 0.0 0.0 0.00 0.00 0.00 59 1015.7
20260504045057 48 0 0.0 0.0 0.00 0.00 0.00 59 1015.8
20260504044557 48 0 0.0 0.0 0.00 0.00 0.00 59 1015.7
20260504044057 48 0 0.0 0.0 0.00 0.00 0.00 60 1015.9
20260504043602 48 0 0.0 0.0 0.00 0.00 0.00 60 1015.9
20260504043103 47 0 0.0 0.0 0.00 0.00 0.00 62 1015.8
20260504042556 46 0 0.0 0.0 0.00 0.00 0.00 62 1015.8
20260504042057 46 0 0.0 0.0 0.00 0.00 0.00 63 1015.9
20260504041601 45 0 0.0 1.0 0.00 0.00 0.00 64 1015.8
20260504041100 45 0 0.0 1.0 0.00 0.00 0.00 64 1015.7
20260504040559 44 0 0.0 1.0 0.00 0.00 0.00 64 1015.7
20260504040103 44 0 0.0 0.0 0.00 0.00 0.00 63 1015.8
20260504035559 44 0 0.0 0.0 0.00 0.00 0.00 62 1015.7
20260504035100 44 0 0.0 1.0 0.00 0.00 0.00 63 1015.8
20260504034613 43 0 0.0 1.0 0.00 0.00 0.00 63 1015.6
20260504034058 43 0 0.0 1.0 0.00 0.00 0.00 63 1015.7
20260504033558 43 0 0.0 0.0 0.00 0.00 0.00 62 1015.6
20260504033101 43 0 0.0 0.0 0.00 0.00 0.00 62 1015.6
20260504032558 43 0 0.0 1.0 0.00 0.00 0.00 62 1015.5
20260504032056 43 0 0.0 1.0 0.00 0.00 0.00 63 1015.5
20260504031611 43 0 0.0 0.0 0.00 0.00 0.00 64 1015.3
20260504031058 43 0 0.0 0.0 0.00 0.00 0.00 64 1015.3
20260504030601 44 0 0.0 0.0 0.00 0.00 0.00 64 1015.4
20260504030113 44 0 0.0 0.0 0.00 0.00 0.00 64 1015.4
20260504025558 44 0 0.0 0.0 0.00 0.00 0.00 64 1015.4
20260504025058 44 0 0.0 0.0 0.00 0.00 0.00 64 1015.3
20260504024556 44 0 0.0 0.0 0.00 0.00 0.00 64 1015.3
20260504024057 44 0 0.0 0.0 0.00 0.00 0.00 65 1015.3
20260504023559 44 0 0.0 0.0 0.00 0.00 0.00 65 1015.3
20260504023058 45 0 0.0 0.0 0.00 0.00 0.00 63 1015.4
20260504022559 45 0 0.0 0.0 0.00 0.00 0.00 63 1015.4
20260504022059 45 0 0.0 0.0 0.00 0.00 0.00 63 1015.4
20260504021608 45 0 0.0 0.0 0.00 0.00 0.00 63 1015.3
20260504021058 46 0 0.0 0.0 0.00 0.00 0.00 62 1015.3
20260504020559 46 0 0.0 0.0 0.00 0.00 0.00 62 1015.2
20260504020055 46 0 0.0 0.0 0.00 0.00 0.00 61 1015.2
20260504015555 47 0 0.0 0.0 0.00 0.00 0.00 60 1015.2
20260504015058 47 0 0.0 0.0 0.00 0.00 0.00 59 1015.1
20260504014556 47 0 0.0 0.0 0.00 0.00 0.00 57 1015.1
20260504014101 48 0 0.0 0.0 0.00 0.00 0.00 56 1014.9
20260504013558 48 0 0.0 0.0 0.00 0.00 0.00 56 1015.0
20260504013057 48 0 0.0 0.0 0.00 0.00 0.00 56 1014.9
20260504012602 49 0 0.0 0.0 0.00 0.00 0.00 55 1014.8
20260504012101 49 0 0.0 0.0 0.00 0.00 0.00 54 1014.8
20260504011558 49 0 0.0 0.0 0.00 0.00 0.00 54 1014.8
20260504011058 50 0 0.0 0.0 0.00 0.00 0.00 54 1014.7
20260504010557 50 0 0.0 0.0 0.00 0.00 0.00 53 1014.9
20260504010057 51 0 0.0 0.0 0.00 0.00 0.00 51 1014.9
20260504005559 51 0 0.0 0.0 0.00 0.00 0.00 50 1014.9
20260504005059 52 0 0.0 0.0 0.00 0.00 0.00 50 1014.9
20260504004558 53 0 0.0 0.0 0.00 0.00 0.00 48 1014.8